Weather History for Wahoo, NE

Change the Weather History Date:

Friday, February 15, 2013

  Actual Average Record
Temperature  
Mean Temperature 22 °F -  
Max Temperature 32 °F 35 °F 59 °F (1984)
Min Temperature 12 °F 16 °F -1 °F (1970)
Degree Days  
Heating Degree Days 43    
Moisture  
Dew Point 17 °F    
Average Humidity 78    
Maximum Humidity 91    
Minimum Humidity 51    
Precipitation  
Precipitation 0.01 in - - ()
Sea Level Pressure  
Sea Level Pressure 30.32 in    
Wind  
Wind Speed 8 mph (NW)    
Max Wind Speed 17 mph    
Max Gust Speed 21 mph    
Visibility 9 miles    
Events Snow    
Averages and records for this station are not official NWS values.
T = Trace of Precipitation, MM = Missing Value Source: NWS Daily Summary

Daily Weather History Graph

Daily Weather History Graph

Search for Another Location

Airport:

Trip Planner

Search our weather history database for the weather conditions in past years. The results will help you decide how hot, cold, wet, or windy it might be!

Date:

Astronomy

Feb. 15, 2013 Rise Set
Actual Time 7:20 AM CST 6:00 PM CST
Civil Twilight 6:52 AM CST 6:29 PM CST
Nautical Twilight 6:20 AM CST 7:01 PM CST
Astronomical Twilight 5:48 AM CST 7:33 PM CST
Moon 9:53 AM CST (2/15) No Moon Set
Length of Visible Light 11h 36m
Length of Day
10h 40m
Waxing Crescent, 30% of the Moon is Illuminated
Feb 15
Waxing Crescent
Feb 17
First Quarter
Feb 25
Full
Mar 4
Last Quarter
Mar 11
New

Hourly Weather History & Observations

Time (CST) Temp. Windchill Dew Point Humidity Pressure Visibility Wind Dir Wind Speed Gust Speed Precip Events Conditions
12:15 AM 19.0 °F 7.5 °F 12.7 °F 76% 30.30 in 10.0 mi NNW 10.4 mph - N/A   Clear
12:35 AM 18.0 °F 6.1 °F 12.2 °F 78% 30.31 in 10.0 mi NW 10.4 mph 16.1 mph N/A   Clear
12:55 AM 17.6 °F 5.0 °F 12.7 °F 81% 30.31 in 10.0 mi NW 11.5 mph - N/A   Clear
1:15 AM 17.2 °F 5.2 °F 12.6 °F 82% 30.31 in 10.0 mi NW 10.4 mph - N/A   Clear
1:55 AM 16.2 °F 3.9 °F 12.2 °F 84% 30.31 in 10.0 mi NW 10.4 mph - N/A   Clear
2:15 AM 15.8 °F 4.2 °F 12.4 °F 86% 30.32 in 10.0 mi WNW 9.2 mph - N/A   Clear
2:35 AM 15.4 °F 5.6 °F 12.0 °F 86% 30.33 in 10.0 mi NW 6.9 mph - N/A   Clear
2:55 AM 14.9 °F 4.0 °F 11.7 °F 87% 30.33 in 10.0 mi WNW 8.1 mph - N/A   Clear
3:15 AM 13.6 °F 3.5 °F 10.4 °F 87% 30.33 in 10.0 mi WNW 6.9 mph - N/A   Clear
3:35 AM 14.0 °F 5.1 °F 10.6 °F 86% 30.33 in 10.0 mi West 5.8 mph - N/A   Clear
4:15 AM 14.5 °F 7.1 °F 10.6 °F 84% 30.33 in 10.0 mi WNW 4.6 mph - N/A   Clear
4:35 AM 13.3 °F 7.3 °F 9.3 °F 84% 30.34 in 10.0 mi WNW 3.5 mph - N/A   Clear
4:55 AM 13.3 °F 7.3 °F 10.0 °F 87% 30.34 in 10.0 mi NW 3.5 mph - N/A   Clear
5:15 AM 12.9 °F 2.6 °F 8.6 °F 83% 30.34 in 10.0 mi NW 6.9 mph - N/A   Clear
5:35 AM 13.6 °F 2.5 °F 9.0 °F 82% 30.35 in 10.0 mi WNW 8.1 mph - N/A   Scattered Clouds
5:55 AM 16.5 °F 5.1 °F 11.3 °F 80% 30.35 in 10.0 mi WNW 9.2 mph - N/A   Mostly Cloudy
6:15 AM 18.0 °F 6.9 °F 12.2 °F 78% 30.35 in 10.0 mi WNW 9.2 mph - N/A   Overcast
6:35 AM 19.0 °F 7.5 °F 13.1 °F 78% 30.35 in 10.0 mi WNW 10.4 mph - N/A   Overcast
6:55 AM 19.4 °F 9.5 °F 13.5 °F 78% 30.35 in 10.0 mi WNW 8.1 mph - N/A   Overcast
7:15 AM 18.1 °F 8.9 °F 12.2 °F 78% 30.34 in 10.0 mi WNW 6.9 mph - N/A   Mostly Cloudy
7:35 AM 16.5 °F 6.0 °F 11.7 °F 81% 30.34 in 10.0 mi NW 8.1 mph - N/A   Scattered Clouds
7:55 AM 16.7 °F 6.2 °F 12.0 °F 82% 30.34 in 10.0 mi WNW 8.1 mph - N/A   Clear
8:15 AM 18.3 °F 6.6 °F 13.3 °F 81% 30.34 in 10.0 mi NW 10.4 mph - N/A   Clear
8:35 AM 20.5 °F 8.0 °F 14.7 °F 78% 30.35 in 10.0 mi NW 12.7 mph - N/A   Clear
8:55 AM 21.9 °F 11.0 °F 15.3 °F 76% 30.35 in 10.0 mi NW 10.4 mph - N/A   Clear
9:15 AM 23.7 °F 15.6 °F 15.6 °F 71% 30.36 in 10.0 mi NW 6.9 mph - N/A   Clear
9:35 AM 25.9 °F 17.4 °F 16.3 °F 67% 30.35 in 10.0 mi WNW 8.1 mph - N/A   Clear
9:55 AM 27.7 °F 20.4 °F 16.3 °F 62% 30.35 in 10.0 mi WNW 6.9 mph - N/A   Mostly Cloudy
10:15 AM 28.6 °F 20.7 °F 16.0 °F 59% 30.35 in 10.0 mi NNW 8.1 mph - N/A   Overcast
10:35 AM 28.2 °F 20.2 °F 16.0 °F 60% 30.36 in 10.0 mi NW 8.1 mph - N/A   Overcast
10:55 AM 28.4 °F 21.2 °F 14.7 °F 57% 30.35 in 10.0 mi NW 6.9 mph - N/A   Overcast
11:15 AM 28.9 °F 23.9 °F 16.3 °F 59% 30.35 in 10.0 mi WNW 4.6 mph - N/A   Overcast
11:55 AM 29.1 °F - 14.0 °F 53% 30.34 in 10.0 mi Calm Calm - N/A   Overcast
12:15 PM 29.3 °F - 13.8 °F 53% 30.33 in 10.0 mi Calm Calm - N/A   Overcast
12:35 PM 30.2 °F - 15.1 °F 53% 30.33 in 10.0 mi Calm Calm - N/A   Overcast
12:55 PM 30.2 °F - 15.1 °F 53% 30.32 in 10.0 mi Calm Calm - N/A   Overcast
1:15 PM 30.9 °F 27.5 °F 14.7 °F 51% 30.31 in 10.0 mi SSW 3.5 mph - N/A   Overcast
1:35 PM 31.1 °F - 16.2 °F 54% 30.31 in 10.0 mi Calm Calm - N/A   Overcast
1:55 PM 31.1 °F 27.7 °F 18.9 °F 61% 30.30 in 10.0 mi West 3.5 mph - N/A   Overcast
2:15 PM 31.1 °F 23.7 °F 21.6 °F 68% 30.29 in 10.0 mi West 8.1 mph - N/A   Overcast
2:35 PM 31.1 °F 27.7 °F 21.2 °F 67% 30.28 in 10.0 mi WSW 3.5 mph - N/A   Overcast
2:55 PM 31.5 °F 28.1 °F 21.4 °F 66% 30.27 in 10.0 mi SSW 3.5 mph - N/A   Overcast
3:15 PM 32.0 °F - 22.5 °F 68% 30.27 in 10.0 mi Calm Calm - N/A   Overcast
3:35 PM 31.8 °F - 22.5 °F 68% 30.27 in 10.0 mi Calm Calm - N/A   Overcast
3:55 PM 29.3 °F 25.6 °F 26.4 °F 89% 30.28 in 0.2 mi WNW 3.5 mph - N/A Snow Heavy Snow
4:15 PM 28.9 °F - 26.4 °F 90% 30.27 in 7.0 mi Calm Calm - N/A   Mostly Cloudy
4:35 PM 29.1 °F 24.1 °F 26.6 °F 90% 30.28 in 0.2 mi NNW 4.6 mph - N/A Snow Snow
4:55 PM 30.4 °F 22.2 °F 25.2 °F 81% 30.28 in 10.0 mi NNW 9.2 mph - 0.01 in   Overcast
5:15 PM 28.4 °F 22.2 °F 24.6 °F 86% 30.28 in 10.0 mi NNW 5.8 mph - N/A   Overcast
5:35 PM 29.1 °F 18.9 °F 25.3 °F 86% 30.29 in 7.0 mi NW 12.7 mph - N/A Snow Light Snow
5:55 PM 28.9 °F 18.6 °F 23.5 °F 80% 30.29 in 10.0 mi NNW 12.7 mph - N/A   Overcast
6:15 PM 28.6 °F 17.7 °F 22.5 °F 78% 30.30 in 10.0 mi NNW 13.8 mph - N/A   Overcast
6:35 PM 28.4 °F 18.5 °F 24.1 °F 84% 30.30 in 10.0 mi NNW 11.5 mph - N/A   Overcast
6:55 PM 27.9 °F 15.5 °F 24.4 °F 87% 30.31 in 5.0 mi North 17.3 mph - N/A Snow Light Snow
7:15 PM 26.4 °F 14.5 °F 23.2 °F 88% 30.32 in 3.0 mi North 15.0 mph 20.7 mph N/A Snow Light Snow
7:35 PM 26.1 °F 15.0 °F 23.0 °F 88% 30.33 in 7.0 mi North 12.7 mph - N/A Snow Light Snow
7:55 PM 25.3 °F 14.1 °F 22.1 °F 87% 30.33 in 10.0 mi North 12.7 mph - N/A   Overcast
8:15 PM 23.9 °F 14.2 °F 21.2 °F 89% 30.34 in 10.0 mi North 9.2 mph - N/A   Mostly Cloudy
8:35 PM 22.3 °F 12.2 °F 19.8 °F 90% 30.34 in 10.0 mi North 9.2 mph - N/A   Mostly Cloudy
8:55 PM 20.3 °F 10.6 °F 17.6 °F 89% 30.34 in 10.0 mi North 8.1 mph - N/A   Scattered Clouds
9:15 PM 19.4 °F 10.4 °F 17.2 °F 91% 30.34 in 10.0 mi NNW 6.9 mph - N/A   Clear
9:35 PM 19.9 °F 10.1 °F 17.6 °F 91% 30.34 in 10.0 mi NNW 8.1 mph - N/A   Scattered Clouds
9:55 PM 21.0 °F 12.4 °F 17.8 °F 87% 30.35 in 10.0 mi NNW 6.9 mph - N/A   Mostly Cloudy
10:15 PM 21.7 °F 12.3 °F 18.5 °F 87% 30.35 in 10.0 mi NNW 8.1 mph - N/A   Overcast
10:35 PM 20.8 °F 10.4 °F 16.9 °F 85% 30.35 in 10.0 mi NNW 9.2 mph - N/A   Mostly Cloudy
10:55 PM 19.2 °F 10.2 °F 16.0 °F 87% 30.34 in 10.0 mi NNW 6.9 mph - N/A   Clear
11:15 PM 16.9 °F 8.5 °F 14.2 °F 89% 30.34 in 10.0 mi WNW 5.8 mph - N/A   Clear
11:35 PM 15.8 °F 7.2 °F 13.3 °F 90% 30.34 in 10.0 mi NW 5.8 mph - N/A   Clear
11:55 PM 15.8 °F 6.1 °F 13.1 °F 89% 30.34 in 10.0 mi NW 6.9 mph - N/A   Clear